{"data":{"norad_id":59929,"epoch":"2026-05-25T00:41:01.358016Z","epoch_age_seconds":69233,"freshness":"FRESH","line1":"1 59929U 24106H   26145.02848794 -.00014363  00000+0 -51351-3 0  9993","line2":"2 59929  42.9946 258.1954 0001498 262.5730  97.4952 15.27573012112239","mean_motion":15.27573012,"eccentricity":0.0001498,"inclination_deg":42.9946,"raan_deg":258.1954,"arg_perigee_deg":262.573,"mean_anomaly_deg":97.4952,"bstar":-0.00051351,"rev_number":11223,"period_min":94.26717994413,"perigee_km":482.04221189364,"apogee_km":484.09782951704,"semimajor_km":6861.2070207053,"source":"CELESTRAK","updated_at":"2026-05-25T13:38:19.123077Z"}}